Houston Clover, TX

11:04 AM CST on December 17, 2017 (GMT -0600)
Clover

Weather History for KLVJ - April, 2013

Change the Weather History Date:

Tuesday, April 23, 2013

  Actual Average (KEFD) Record (KEFD)
Temperature  
Mean Temperature 68 °F -  
Max Temperature 79 °F 77 °F 87 °F (1999)
Min Temperature 57 °F 61 °F 51 °F (1998)
Cooling Degree Days 3    
Growing Degree Days 18 (Base 50)    
Moisture  
Dew Point 61 °F    
Average Humidity 80    
Maximum Humidity 94    
Minimum Humidity 56    
Precipitation  
Precipitation 0.00 in - - ()
Sea Level Pressure  
Sea Level Pressure 29.95 in    
Wind  
Wind Speed 4 mph (SSE)    
Max Wind Speed 18 mph    
Max Gust Speed 23 mph    
Visibility 10 miles    
Events      
Averages and records for this station are not official NWS values.
T = Trace of Precipitation, MM = Missing Value Source: NWS Daily Summary

Daily Weather History Graph

Daily Weather History Graph

Search for Another Location

Airport or City:

Trip Planner

Search our weather history database for the weather conditions in past years. The results will help you decide how hot, cold, wet, or windy it might be!

Date:

Astronomy

Apr. 23, 2013 Rise Set
Actual Time 6:46 AM CDT 7:52 PM CDT
Civil Twilight 6:21 AM CDT 8:17 PM CDT
Nautical Twilight 5:51 AM CDT 8:47 PM CDT
Astronomical Twilight 5:21 AM CDT 9:17 PM CDT
Moon 5:56 PM CDT (4/23) 5:04 AM CDT (4/23)
Length of Visible Light 13h 56m
Length of Day
13h 06m
Waxing Gibbous, 94% of the Moon is Illuminated
Apr 23
Waxing Gibbous
Apr 25
Full
May 2
Last Quarter
May 9
New
May 17
First Quarter

Hourly Weather History & Observations

Time (CDT) Temp. Dew Point Humidity Pressure Visibility Wind Dir Wind Speed Gust Speed Precip Events Conditions
12:53 AM 62.1 °F 57.9 °F 86% 29.98 in 10.0 mi SSE 3.5 mph - N/A   Clear
1:53 AM 61.0 °F 57.9 °F 90% 29.97 in 10.0 mi Calm Calm - N/A   Clear
2:53 AM 61.0 °F 59.0 °F 93% 29.95 in 10.0 mi Calm Calm - N/A   Clear
3:53 AM 59.0 °F 55.9 °F 90% 29.94 in 10.0 mi Calm Calm - N/A   Partly Cloudy
4:06 AM 59.0 °F 55.4 °F 88% 29.94 in 10.0 mi Calm Calm - N/A   Mostly Cloudy
4:13 AM 57.2 °F 55.4 °F 94% 29.94 in 10.0 mi Calm Calm - N/A   Scattered Clouds
4:42 AM 57.2 °F 55.4 °F 94% 29.94 in 10.0 mi Calm Calm - N/A   Mostly Cloudy
5:12 AM 57.2 °F 55.4 °F 94% 29.94 in 10.0 mi Calm Calm - N/A   Mostly Cloudy
5:34 AM 57.2 °F 55.4 °F 94% 29.94 in 10.0 mi Calm Calm - N/A   Partly Cloudy
5:53 AM 57.9 °F 55.9 °F 93% 29.95 in 10.0 mi ENE 3.5 mph - N/A   Scattered Clouds
6:53 AM 62.1 °F 59.0 °F 90% 29.96 in 10.0 mi SSE 4.6 mph - N/A   Partly Cloudy
7:53 AM 64.9 °F 63.0 °F 93% 29.98 in 10.0 mi SE 6.9 mph - N/A   Clear
8:53 AM 70.0 °F 64.0 °F 81% 29.99 in 10.0 mi SSE 9.2 mph - N/A   Clear
9:53 AM 73.0 °F 63.0 °F 71% 29.99 in 10.0 mi SSE 13.8 mph 19.6 mph N/A   Scattered Clouds
10:53 AM 75.0 °F 63.0 °F 66% 30.00 in 10.0 mi South 11.5 mph - N/A   Mostly Cloudy
11:53 AM 77.0 °F 62.1 °F 60% 29.99 in 10.0 mi South 18.4 mph 23.0 mph N/A   Overcast
12:53 PM 75.9 °F 62.1 °F 62% 29.98 in 10.0 mi SSE 10.4 mph - N/A   Overcast
2:53 PM 79.0 °F 62.1 °F 56% 29.94 in 10.0 mi South 11.5 mph 18.4 mph N/A   Overcast
3:53 PM 78.1 °F 62.1 °F 58% 29.92 in 10.0 mi SSE 11.5 mph - N/A   Mostly Cloudy
4:53 PM 77.0 °F 63.0 °F 62% 29.91 in 10.0 mi South 10.4 mph - N/A   Mostly Cloudy
5:53 PM 77.0 °F 64.0 °F 64% 29.91 in 10.0 mi South 8.1 mph - N/A   Partly Cloudy
6:53 PM 75.9 °F 64.9 °F 69% 29.92 in 10.0 mi SSE 8.1 mph - N/A   Overcast
7:00 PM 75.2 °F 64.4 °F 69% 29.92 in 10.0 mi SSE 8.1 mph - N/A   Overcast
7:53 PM 73.9 °F 66.0 °F 76% 29.93 in 10.0 mi SE 6.9 mph - N/A   Overcast
8:53 PM 73.0 °F 66.9 °F 81% 29.95 in 10.0 mi SE 5.8 mph - N/A   Overcast
9:53 PM 72.0 °F 66.9 °F 84% 29.97 in 10.0 mi ESE 3.5 mph - N/A   Overcast
10:53 PM 73.0 °F 68.0 °F 84% 29.98 in 10.0 mi SE 5.8 mph - N/A   Overcast
11:53 PM 72.0 °F 68.0 °F 87% 29.99 in 10.0 mi SE 3.5 mph - N/A   Overcast